Hourly Data Report for October 23, 2015

All times are specified in Local Standard Time (LST). Add 1 hour to adjust for Daylight Saving Time where and when it is observed.

ST LEONARD CS
NEW BRUNSWICK

47°09'28.050" N
67°49'55.014" W
245.00 m
810I001
71019
WIY

Download Data

Hourly Data (October 2015)
Hourly Data Report for October 23, 2015
Temp Definition
°C
Dew Point Temp Definition
°C
Rel Hum Definition
%
Wind Dir Definition
10's deg

Wind Spd Definition
km/h
Visibility Definition
km
Stn Press Definition
kPa
Hmdx Definition


Wind Chill Definition


Weather Definition


TIME
00:00 4.5 3.9 96 32 5   98.13     LegendNANA
01:00 4.2 3.3 94 32 13   98.14     LegendNANA
02:00 2.8 2.0 95 30 21   98.21     LegendNANA
03:00 2.3 1.7 96 29 13   98.23     LegendNANA
04:00 1.9 1.0 93 29 17   98.27     LegendNANA
05:00 1.5 0.5 93 27 14   98.31     LegendNANA
06:00 1.2 0.1 92 29 12   98.38     LegendNANA
07:00 0.8 -0.2 93 30 14   98.45     LegendNANA
08:00 1.5 0.3 92 30 16   98.57     LegendNANA
09:00 2.1 0.8 91 29 15   98.64     LegendNANA
10:00 2.6 1.2 91 31 19   98.72     LegendNANA
11:00 3.7 1.3 84 32 25   98.78     LegendNANA
12:00 4.4 0.5 75 32 30   98.85     LegendNANA
13:00 3.1 -0.6 77 33 29   98.97     LegendNANA
14:00 3.2 -1.0 74 33 23   99.05     LegendNANA
15:00 2.5 -2.0 72 34 26   99.18     LegendNANA
16:00 2.2 -2.4 72 34 22   99.33     LegendNANA
17:00 2.1 -2.6 71 35 15   99.44     LegendNANA
18:00 1.9 -2.8 71 34 17   99.50     LegendNANA
19:00 1.6 -2.6 73 34 11   99.58     LegendNANA
20:00 1.4 -2.5 75 34 11   99.62     LegendNANA
21:00 1.3 -2.5 76 34 10   99.66     LegendNANA
22:00 0.6 -3.0 77 33 11   99.72     LegendNANA
23:00 0.2 -2.8 80 35 6   99.77     LegendNANA

Notes on Data Quality.

Legend

  • E = Estimated
  • M = Missing
  • NA = Not Available
  • ‡ = Partner data that is not subject to review by the National Climate Archives
Date modified: